Weather in Sardoba

Uzbekistan     40°32′36″N   68°24′40″E
temp.,
°C
wind,
m/s
gust,
m/s
humid.,
%
clouds,
%
prec.,
mm/h
press.,
hPa
HPBL,
m
15 may, sat
sat1523:00+21nnw48370 0.0 1011258
02:00+19w59370 0.0 1011210
05:00+17wsw59410 0.0 1011178
08:00+20w45340 0.0 1012731
11:00+25wsw44250 0.0 10111216
14:00+29wsw33180 0.0 10101635
17:00+30nw11160 0.0 10081923
20:00+25se12240 0.0 100922
16 may, sun
sun1623:00+22wnw223013 0.0 100921
02:00+18w22470 0.0 100929
05:00+17wsw34430 0.0 101056
08:00+21wnw22310 0.0 1012347
11:00+27w11230 0.0 1011849
14:00+31nnw33180 0.0 10091395
17:00+32ne11160 0.0 10082629
20:00+26s36290 0.0 100989
17 may, mon
mon1723:00+23s11340 0.0 100912
02:00+22se01360 0.0 100911
05:00+20ssw12390 0.0 101012
08:00+25ssw22320 0.0 1012274
11:00+31se33200 0.0 10111030
14:00+35nne23120 0.0 10093353
17:00+35n44125 0.0 10083885
20:00+26s383233 0.0 1009192
18 may, tue
tue1823:00+24se22291 0.0 100920
02:00+22e23330 0.0 100920
05:00+21ese22370 0.0 100911
08:00+27se23260 0.0 1009304
11:00+34ene22151 0.0 10081819
14:00+36nnw35114 0.0 10064380
17:00+35nw361211 0.0 10054561
20:00+28se472670 0.0 1007189
19 may, wed
wed1923:00+25ese47300 0.0 1007121
02:00+23ssw23280 0.0 100626
05:00+21sw22310 0.0 100724
08:00+27wsw34232 0.0 1008311
11:00+33wnw33170 0.0 10081281
14:00+36w4790 0.0 10064347
17:00+36nw5680 0.0 10064265
20:00+29nne34142 0.0 100738